Location: Cheching
(60.0667°N, 164.2167°W)
Time: 15:26:06
(UTC+00:00)

O/OREOS (USA 219) - Pass Details

Date: 23 January 2021
Orbit: 621 x 646 km, 72.0° (Epoch: 22 May)

Event Time Altitude Azimuth Distance (km) Brightness Sun altitude
Rises 18:18:20 0° 211° (SSW) 2,954 ? -8.3°
Reaches altitude 10° 18:20:36 10° 210° (SSW) 2,047 ? -8.1°
Maximum altitude 18:25:12 79° 125° (SE) 665 ? -7.6°
Drops below altitude 10° 18:29:49 10° 39° (NE) 2,052 ? -7.1°
Sets 18:32:06 0° 38° (NE) 2,963 ? -6.8°
